Regional Weather Roundup
Issued by NWS

Home | Current Version | Previous Version | Graphics & Text | Print | Product List | Glossary On
Versions: 1 2 3 4 5 6 7 8 9 10 11 12 13 14 15 16 17 18 19 20 21 22 23 24 25 26 27 28 29 30 31 32 33 34 35 36 37 38 39 40 41 42 43 44 45 46 47 48 49 50
000
ASUS43 KLOT 171710
RWRIL

ILLINOIS REGIONAL WEATHER ROUNDUP
NATIONAL WEATHER SERVICE CHICAGO/ROMEOVILLE IL
1200 PM CDT THU APR 17 2014

NOTE: "FAIR" INDICATES FEW OR NO CLOUDS BELOW 12,000 FEET WITH NO
SIGNIFICANT WEATHER AND/OR OBSTRUCTIONS TO VISIBILITY.

* THESE STATIONS ARE NOT UNDER NWS QUALITY CONTROL. THEY ALSO MAY NOT
  REPORT WEATHER SUCH AS PRECIPITATION OR FOG.

ILZ001-002-007-009-015-016-024-171800-
NORTHWEST ILLINOIS

CITY           SKY/WX    TMP DP  RH WIND       PRES   REMARKS
MOLINE         PTSUNNY   47  34  60 W13       30.24R
STERLING*      PTSUNNY   52  37  58 W14       30.22R
SAVANNA*       PTSUNNY   49  35  60 W9        30.21S
$$

ILZ003-004-008-010-011-017-018-171800-
NORTH CENTRAL ILLINOIS

CITY           SKY/WX    TMP DP  RH WIND       PRES   REMARKS
ROCKFORD       CLOUDY    50  36  58 W8G20     30.21R
FREEPORT*      CLOUDY    46  38  72 W10       30.21S
ROCHELLE*      PTSUNNY   51  38  59 SW15      30.21R
DE KALB*       MOSUNNY   51  38  59 W15       30.20R
PERU*          MOSUNNY   53  39  58 NW6       30.21S
$$

ILZ005-006-012>014-019>023-171800-
NORTHEAST ILLINOIS

CITY           SKY/WX    TMP DP  RH WIND       PRES   REMARKS
CHICAGO-OHARE  MOSUNNY   56  36  47 SW15G24   30.18R
CHICAGO-MIDWAY MOSUNNY   58  36  43 SW16      30.19R
AURORA         PTSUNNY   54  40  59 W16       30.20R
LANSING*       SUNNY     58  35  42 SW15G21   30.20S
WAUKEGAN       MOSUNNY   55  38  52 SW18G25   30.16R
DUPAGE AIRPORT MOSUNNY   56  39  53 SW18G24   30.18R
KANKAKEE*      MOSUNNY   60  37  43 SW18      30.22S
WHEELING       MOSUNNY   57  38  48 SW12G20   30.18R
MORRIS*        SUNNY     56  33  41 SW12G18   30.21R
ROMEOVILLE*    SUNNY     57  36  46 W16       30.20R
NORTHERLY ISL    N/A     56  32  40 W14         N/A
$$

LMZ740>746-171800-
SOUTHERN LAKE MICHIGAN

STATION/POSITION SKY/WX   TEMP    WIND        PRES    VSBY  WAVE
                          AIR SEA DIR/SP/G                  HT/PER
                          (F)     (DEG/KT/KT) (MB)    (MI)  (FT/S)
WAUKEGAN HARBOR            52     260/ 13/ 21 1022.4R
HARRISON CRIB              53     210/ 15/ 19   N/A
BURNHAM HARBOR             56     210/  9/ 16   N/A
CALUMET HARBOR             56     220/ 13/ 20 1022.9R
MICHIGAN CITY              55     200/ 18/ 23   N/A
$$

ILZ025>027-034>036-040-047-049-050-058-095>099-171800-
WEST-CENTRAL ILLINOIS

CITY           SKY/WX    TMP DP  RH WIND       PRES   REMARKS
QUINCY         CLOUDY    48  36  63 NW7       30.27R
GALESBURG*     CLOUDY    46  37  70 W8        30.25S
MACOMB*        PTSUNNY   49  37  63 NW9       30.28S
JACKSONVILLE*  CLOUDY    55  38  53 W7        30.26S
PITTSFIELD*    CLOUDY    53  39  58 W8        30.28R
$$

ILZ028>032-037-038-041>044-048-051>054-059>061-171800-
CENTRAL ILLINOIS

CITY           SKY/WX    TMP DP  RH WIND       PRES   REMARKS
PONTIAC        SUNNY     57  37  47 W12G17    30.22S
BLOOMINGTON    MOSUNNY   55  34  45 W15       30.24R
DECATUR        MOSUNNY   59  37  44 SW12      30.25R
PEORIA         MOSUNNY   54  38  54 VRB6      30.24R
LACON*         MOSUNNY   52  38  60 W8        30.23S
LINCOLN*       MOSUNNY   59  36  41 SW7       30.24R
SPRINGFIELD    PTSUNNY   59  34  39 W8        30.25R
TAYLORVILLE    PTSUNNY   55  36  47 SW9       30.26R
$$

ILZ033-039-045-046-055>057-062-063-171800-
EAST-CENTRAL ILLINOIS

CITY           SKY/WX    TMP DP  RH WIND       PRES   REMARKS
CHAMPAIGN      MOSUNNY   62  36  37 SW17G23   30.24S
RANTOUL*       SUNNY     62  35  36 SW15      30.24S
MATTOON        MOSUNNY   59  36  42 SW13G21   30.25S
PARIS*         SUNNY     62  38  39 SW15G23   30.26F
$$

ILZ079-100>102-171800-
SOUTHWEST ILLINOIS

CITY           SKY/WX    TMP DP  RH WIND       PRES   REMARKS
ALTON          PTSUNNY   59  34  38 VRB6      30.26S
BELLEVILLE     PTSUNNY   64  38  38 S10       30.25S
CAHOKIA*       PTSUNNY   62  36  37 W8        30.25S
SPARTA*        PTSUNNY   61  36  39 S10       30.28S
$$

ILZ064>066-069>071-074>076-080>082-084>086-088>090-092>094-171800-
SOUTH-CENTRAL ILLINOIS

CITY           SKY/WX    TMP DP  RH WIND       PRES   REMARKS
CARBONDALE     PTSUNNY   63  36  36 S12       30.28F
CAIRO*         SUNNY     64  41  43 SW10G16   30.31F
MARION         MOSUNNY   63  37  39 S12       30.30F
MT. VERNON     MOSUNNY   64  36  34 S16       30.29S
CENTRALIA*       N/A     62  35  36 S14       30.27S
SALEM*         PTSUNNY   62  38  40 SW7       30.27F
METROPOLIS*    SUNNY     62  35  36 S12       30.31S
$$

ILZ067-068-072-073-078-083-087-091-171800-
SOUTHEAST ILLINOIS

CITY           SKY/WX    TMP DP  RH WIND       PRES   REMARKS
FAIRFIELD*     SUNNY     63  43  48 S10       30.29F
HARRISBURG*    SUNNY     63  38  39 S13       30.31F
ROBINSON*      MOSUNNY   65  38  37 S14G21    30.30S
CARMI*         SUNNY     64  43  46 S12       30.30F
$$

ABBREVIATIONS USED IN REMARKS
   TC - TEMPERATURE IN CELSIUS
  WCI - WIND CHILL INDEX
   HX - HEAT INDEX
  VSB - VISIBILITY
$$




USA.gov is the U.S. government's official web portal to all federal, state and local government web resources and services.